Regional Weather Roundup
Issued by NWS

Home | Current Version | Previous Version | Graphics & Text | Print | Product List | Glossary Off
Versions: 1 2 3 4 5 6 7 8 9 10 11 12 13 14 15 16 17 18 19 20 21 22 23 24 25 26 27 28 29 30 31 32 33 34 35 36 37 38 39 40 41 42 43 44 45 46 47 48 49 50

000
ASUS43 KDMX 261901
RWRIA

WEATHER ROUNDUP FOR IOWA
NATIONAL WEATHER SERVICE DES MOINES IA
200 PM CDT FRI MAY 26 2017

NOTE: "FAIR" INDICATES FEW OR NO CLOUDS BELOW 12,000 FEET WITH NO
SIGNIFICANT WEATHER AND/OR OBSTRUCTIONS TO VISIBILITY.

* - THESE STATIONS ARE NOT NWS STATIONS...THUS NOT UNDER NWS
QUALITY CONTROL.  THEY ALSO DO NOT REPORT WEATHER SUCH
AS PRECIPITATION OR FOG.

IAZ001>003-012>014-020>022-031>034-043>046-262000-
   NORTHWEST IOWA

CITY           SKY/WX    TMP DP  RH WIND       PRES   REMARKS
CARROLL *      SUNNY     79  59  50 NW8G14    29.77S HX  80
DENISON *      SUNNY     77  57  50 NW13      29.80S
LE MARS *      SUNNY     75  50  41 NW15      29.82R
ORANGE CITY *  SUNNY     73  50  43 NW12      29.81S
SHELDON *      SUNNY     77  45  31 NW13G20   29.78S
SIOUX CITY     CLOUDY    75  52  44 NW20      29.81S
SPENCER        SUNNY     77  51  40 NW9       29.79R
STORM LAKE *   SUNNY     77  52  41 NW10G17   29.80R
$$

IAZ055>058-069>071-079>083-090>094-262000-
   SOUTHWEST IOWA

CITY           SKY/WX    TMP DP  RH WIND       PRES   REMARKS
ATLANTIC *     SUNNY     77  57  50 VRB5      29.77S
AUDUBON *      SUNNY     79  61  53 NW7       29.79R HX  80
CLARINDA *     MOSUNNY   81  61  50 NE10      29.78S HX  81
COUNCIL BLFS * SUNNY     77  57  50 NW12G20   29.80S
CRESTON *      MOSUNNY   79  59  50 NW7       29.79R HX  80
HARLAN  *      SUNNY     79  57  47 NW14      29.82R HX  80
LAMONI         MOSUNNY   79  63  57 N7        29.76S HX  80
RED OAK *      MOSUNNY   81  61  50 N8        29.77S HX  81
SHENANDOAH *   SUNNY     81  59  47 N12       29.77S HX  81
$$

IAZ047>049-059>061-072>074-084-262000-
   CENTRAL IOWA

CITY           SKY/WX    TMP DP  RH WIND       PRES   REMARKS
AMES           SUNNY     75  59  57 CALM      29.77R
ANKENY *       SUNNY     75  61  60 N6        29.77S
BOONE *        SUNNY     75  61  60 CALM      29.77R
CHARITON *     SUNNY     75  61  60 N12       29.76S
DES MOINES     MOSUNNY   78  60  53 N3        29.76F
KNOXVILLE *    SUNNY     73  59  60 N7        29.75F
MARSHALLTOWN   SUNNY     71  59  65 NE6       29.77R
NEWTON *       SUNNY     72  59  64 CALM      29.76S
PELLA *        SUNNY     74  60  62 N5        29.77S
PERRY *          N/A     77  55  45 CALM      29.77S
$$

IAZ004>006-015-016-023>025-035-036-262000-
   NORTH CENTRAL IOWA

CITY           SKY/WX    TMP DP  RH WIND       PRES   REMARKS
ALGONA *       SUNNY     75  57  53 CALM      29.77S
CLARION *      SUNNY     75  57  53 VRB5      29.77S
ESTHERVILLE    SUNNY     75  54  47 NW9G28    29.77R
FORT DODGE *   SUNNY     75  59  57 CALM      29.78S
MASON CITY     SUNNY     72  56  57 VRB6      29.79S
FOREST CITY *    N/A     79  45  29 CALM      29.78S
WEBSTER CITY * SUNNY     75  57  53 CALM      29.75S
$$

IAZ007>011-017>019-026>030-037>042-050>054-066-262000-
   NORTHEAST IOWA

CITY           SKY/WX    TMP DP  RH WIND       PRES   REMARKS
CEDAR RAPIDS   CLOUDY    63  61  93 E7        29.78R
CHARLES CITY * CLOUDY    68  59  73 SE10      29.80R
CLINTON *      LGT RAIN  63  61  93 E10       29.77F
DECORAH *      CLOUDY    64  55  72 S9G15     29.80F
DUBUQUE        RAIN      60  59  96 E9        29.79F FOG
MONTICELLO *   CLOUDY    63  59  88 VRB5      29.80R
OELWEIN *      CLOUDY    66  59  77 SE13G20   29.80F
WATERLOO       CLOUDY    66  57  72 E6        29.78F
$$

IAZ064-065-067-068-078-262000-
   EAST CENTRAL IOWA

CITY           SKY/WX    TMP DP  RH WIND       PRES   REMARKS
DAVENPORT      CLOUDY    64  60  87 E3        29.78R
IOWA CITY      CLOUDY    66  59  78 E5        29.78R
MT. PLEASANT * MOSUNNY   72  59  63 W3        29.76S
MUSCATINE *    CLOUDY    66  61  82 CALM      29.78R
QUAD CITIES    CLOUDY    65  59  81 CALM      29.77R
$$

IAZ062-063-075>077-085>089-095>099-262000-
   SOUTHEAST IOWA

CITY           SKY/WX    TMP DP  RH WIND       PRES   REMARKS
BURLINGTON     CLOUDY    66  63  90 CALM      29.76R
FAIRFIELD *    CLOUDY    68  61  77 CALM      29.77R
FORT MADISON * CLOUDY    66  64  94 N6        29.77R
KEOKUK *       PTSUNNY   72  64  78 VRB7G14   29.74S
OSKALOOSA *      N/A     69  62  79 N6        29.77F
OTTUMWA        MOSUNNY   73  63  70 NW5       29.75F
WASHINGTON *   CLOUDY    64  63  94 E5        29.78R
$$

ABBREVIATIONS USED IN REMARKS
   TC - TEMPERATURES IN CELSIUS
  WCI - WIND CHILL INDEX
   HX - HEAT INDEX
  VSB - VISIBILITY
$$





USA.gov is the U.S. government's official web portal to all federal, state and local government web resources and services.